Home   Weather   Milton Keynes   Past weeks
Flag for United Kingdom

Past Weather in Milton Keynes, England, United Kingdom — Yesterday and Last 2 Weeks

Now
59 °F

Refreshingly cool.


Feels Like: 57 °F
Forecast: 59 / 44 °F
Wind: 9 mph from Southeast

Location: Luton Airport

Current Time: Apr 5, 2020 at 8:59:03 pm

Latest Report: Apr 5, 2020 at 8:20 pm


Visibility: N/A

Pressure: 29.83 "Hg

Humidity: 45%

Dew Point: 37 °F

Location of Milton KeynesLocation

Past Weather in Milton Keynes — Graph

°F

Milton Keynes Temperature Yesterday

Maximum temperature yesterday: 59 °F (at 2:50 pm)
Minimum temperature yesterday: 37 °F (at 6:50 am)
Average temperature yesterday: 48 °F

High & Low Weather Summary for the Past Weeks

 TemperatureHumidityPressure
High68 °F (Apr 5, 3:20 pm)100% (Mar 27, 3:50 am)30.69 "Hg (Mar 27, 3:50 am)
Low30 °F (Mar 26, 3:20 am)26% (Apr 5, 3:50 pm)29.83 "Hg (Apr 5, 5:20 pm)
Average43 °F69%30.26 "Hg
* Reported Mar 21 6:20 pm — Apr 5 7:20 pm, Milton Keynes. Weather by CustomWeather, © 2020

Note: Actual official high and low records may vary slightly from our data, if they occured in-between our weather recording intervals... More about our weather records

Milton Keynes Weather History for the Previous 24 Hours

Scroll right to see more
 ConditionsComfort  
Time TempWeatherWind HumidityBarometerVisibility
7:20 pm
Sun, Apr 5
61 °FRefreshingly cool.13 mph42%29.83 "HgN/A
6:50 pm63 °FMild.14 mph34%29.83 "HgN/A
6:20 pm63 °FMild.13 mph32%29.83 "HgN/A
5:50 pm64 °FMild.12 mph28%29.83 "HgN/A
5:20 pm66 °FMild.16 mph26%29.83 "HgN/A
4:50 pm68 °FMild.14 mph26%29.86 "HgN/A
4:20 pm68 °FMild.16 mph26%29.86 "HgN/A
3:50 pm68 °FMild.16 mph26%29.86 "HgN/A
3:20 pm68 °FMild.16 mph30%29.86 "HgN/A
2:50 pm66 °FMild.16 mph32%29.89 "HgN/A
2:20 pm66 °FMild.17 mph32%29.89 "HgN/A
1:50 pm66 °FMild.17 mph35%29.89 "HgN/A
1:20 pm64 °FMild.20 mph34%29.89 "HgN/A
12:50 pm64 °FMild.16 mph37%29.92 "HgN/A
12:20 pm63 °FMild.15 mph39%29.92 "HgN/A
11:50 am61 °FRefreshingly cool.16 mph45%29.95 "HgN/A
11:20 am61 °FRefreshingly cool.16 mph42%29.95 "HgN/A
10:50 am59 °FRefreshingly cool.13 mph48%29.95 "HgN/A
10:20 am55 °FRefreshingly cool.13 mph55%29.95 "HgN/A
9:50 am55 °FRefreshingly cool.12 mph55%29.98 "HgN/A
9:20 am52 °FCool.10 mph62%29.98 "HgN/A
8:50 am50 °FCool.9 mph62%29.98 "HgN/A
8:20 am48 °FCool.12 mph66%29.98 "HgN/A
7:50 am45 °FQuite cool.10 mph71%29.98 "HgN/A
7:20 am43 °FQuite cool.9 mph76%29.98 "HgN/A
6:50 am41 °FQuite cool.9 mph81%29.98 "HgN/A
6:20 am41 °FQuite cool.8 mph81%30.01 "HgN/A
5:50 am41 °FQuite cool.8 mph81%30.01 "HgN/A
5:20 am41 °FQuite cool.8 mph81%30.01 "HgN/A
4:50 am43 °FQuite cool.9 mph76%30.01 "HgN/A
4:20 am43 °FQuite cool.9 mph81%30.01 "HgN/A
3:50 am43 °FQuite cool.9 mph81%30.04 "HgN/A
3:20 am45 °FQuite cool.9 mph76%30.04 "HgN/A
2:50 am45 °FQuite cool.9 mph76%30.04 "HgN/A
2:20 am45 °FQuite cool.9 mph76%30.04 "HgN/A
1:50 am45 °FQuite cool.9 mph76%30.04 "HgN/A
1:20 am43 °FQuite cool.8 mph81%30.07 "HgN/A
12:50 am45 °FQuite cool.9 mph76%30.07 "HgN/A
12:20 am43 °FQuite cool.8 mph81%30.07 "HgN/A
11:50 pm
Sat, Apr 4
45 °FQuite cool.9 mph76%30.07 "HgN/A
11:20 pm43 °FQuite cool.7 mph81%30.07 "HgN/A
10:50 pm45 °FQuite cool.7 mph71%30.09 "HgN/A
10:20 pm45 °FQuite cool.8 mph66%30.09 "HgN/A
9:50 pm46 °FCool.6 mph57%30.09 "HgN/A
9:20 pm50 °FCool.8 mph50%30.09 "HgN/A
8:50 pm50 °FCool.9 mph50%30.09 "HgN/A
8:20 pm50 °FCool.6 mph50%30.07 "HgN/A
Weather by CustomWeather, © 2020

See weather overview

Advertising